FW9056 Weather Reports


time (UTC)temp
C
wind
direction
speed
KPH
gust
KPH
rain 1hr
cm
rain 24hr
cm
rain mn
cm
humidity
%
barometer
mb
20260507123542 14 0.0 0.0 0.00 0.00 0.00 51 1053.6
20260507122801 14 0.0 0.0 0.00 0.00 0.00 54 1053.8
20260507121659 14 0.0 0.0 0.00 0.00 0.00 52 1053.7
20260507120546 14 0.0 0.0 0.00 0.00 0.00 51 1053.8
20260507115523 14 0.0 0.0 0.00 0.00 0.00 52 1053.9
20260507114705 14 0.0 0.0 0.00 0.00 0.00 52 1053.8
20260507113611 13 0.0 3.2 0.00 0.00 0.00 53 1053.8
20260507112530 13 0.0 0.0 0.00 0.00 0.00 52 1054.0
20260507111528 13 0.0 0.0 0.00 0.00 0.00 54 1053.9
20260507110600 13 0.0 0.0 0.00 0.00 0.00 54 1054.0
20260507105612 13 0.0 0.0 0.00 0.00 0.00 53 1054.1
20260507104527 13 0.0 0.0 0.00 0.00 0.00 54 1054.0
20260507103552 13 0.0 0.0 0.00 0.00 0.00 55 1054.1
20260507102639 13 0.0 0.0 0.00 0.00 0.00 56 1054.2
20260507101557 13 0.0 0.0 0.00 0.00 0.00 57 1054.2
20260507100548 13 0.0 0.0 0.00 0.00 0.00 55 1054.2
20260507095536 13 0.0 0.0 0.00 0.00 0.00 57 1054.2
20260507094528 13 0.0 0.0 0.00 0.00 0.00 60 1054.2
20260507093536 13 0.0 0.0 0.00 0.00 0.00 61 1054.2
20260507092552 13 0.0 3.2 0.00 0.00 0.00 58 1054.2
20260507091535 13 0.0 0.0 0.00 0.00 0.00 58 1054.1
20260507090551 13 0.0 0.0 0.00 0.00 0.00 59 1054.1
20260507090058 12 0.0 0.0 0.00 0.00 0.00 58 1054.3
20260507084524 12 0.0 0.0 0.00 0.00 0.00 62 1054.4
20260507083522 12 0.0 0.0 0.00 0.00 0.00 63 1054.6
20260507082539 12 0.0 0.0 0.00 0.00 0.00 64 1054.2
20260507081648 12 0.0 0.0 0.00 0.00 0.00 65 1054.4
20260507080611 11 0.0 0.0 0.00 0.00 0.00 65 1054.2
20260507075529 11 0.0 0.0 0.00 0.00 0.00 66 1054.3
20260507074557 11 0.0 0.0 0.00 0.00 0.00 69 1054.2
20260507073543 11 0.0 0.0 0.00 0.00 0.00 69 1054.4
20260507072539 10 0.0 0.0 0.00 0.00 0.00 69 1054.1
20260507071528 10 0.0 0.0 0.00 0.00 0.00 71 1054.2
20260507070529 10 0.0 0.0 0.00 0.00 0.00 70 1054.2
20260507065537 10 0.0 0.0 0.00 0.00 0.00 72 1053.9
20260507064526 10 0.0 0.0 0.00 0.00 0.00 71 1053.9
20260507063602 9 0.0 0.0 0.00 0.00 0.00 77 1054.1
20260507062601 9 0.0 0.0 0.00 0.00 0.00 77 1054.2
20260507061041 7 0.0 0.0 0.00 0.00 0.00 87 1053.9
20260507060047 6 0.0 0.0 0.00 0.00 0.00 93 1054.0
20260507055048 6 0.0 0.0 0.00 0.00 0.00 94 1053.9
20260507054052 6 0.0 0.0 0.00 0.00 0.00 94 1053.9
20260507053116 5 0.0 0.0 0.00 0.00 0.00 94 1053.9
20260507052047 5 0.0 0.0 0.00 0.00 0.00 94 1053.9
20260507051034 5 0.0 0.0 0.00 0.00 0.00 94 1053.8
20260507050057 5 0.0 0.0 0.00 0.00 0.00 94 1053.8
20260507045037 5 0.0 0.0 0.00 0.00 0.00 94 1053.6
20260507044059 5 0.0 0.0 0.00 0.00 0.00 94 1053.5
20260507043218 5 0.0 0.0 0.00 0.00 0.00 94 1053.5
20260507042021 5 0.0 0.0 0.00 0.00 0.00 93 1053.3
20260507041159 5 0.0 0.0 0.00 0.00 0.00 93 1053.5
20260507040041 5 0.0 0.0 0.00 0.00 0.00 92 1053.2
20260507035056 5 0.0 0.0 0.00 0.00 0.00 92 1053.1
20260507034201 6 0.0 0.0 0.00 0.00 0.00 92 1053.2
20260507033040 6 0.0 0.0 0.00 0.00 0.00 92 1053.2
20260507032149 6 0.0 0.0 0.00 0.00 0.00 91 1053.2
20260507031045 6 0.0 0.0 0.00 0.00 0.00 90 1053.3
20260507030111 6 0.0 0.0 0.00 0.00 0.00 90 1053.2
20260507025115 7 0.0 0.0 0.00 0.00 0.00 89 1053.2
20260507024054 7 0.0 0.0 0.00 0.00 0.00 88 1053.3
20260507023046 7 0.0 0.0 0.00 0.00 0.00 87 1053.4
20260507022057 7 0.0 0.0 0.00 0.00 0.00 86 1053.2
20260507021051 7 0.0 0.0 0.00 0.00 0.00 86 1053.2
20260507020059 8 0.0 0.0 0.00 0.00 0.00 85 1053.2
20260507015132 8 0.0 0.0 0.00 0.00 0.00 85 1053.2
20260507014044 8 0.0 0.0 0.00 0.00 0.00 85 1053.0
20260507013102 8 0.0 0.0 0.00 0.00 0.00 84 1053.0
20260507012057 8 0.0 0.0 0.00 0.00 0.00 82 1053.1
20260507011212 8 0.0 0.0 0.00 0.00 0.00 81 1053.2
20260507010034 8 0.0 0.0 0.00 0.00 0.00 81 1053.0
20260507005036 8 0.0 0.0 0.00 0.00 0.00 80 1053.2
20260507004022 8 0.0 0.0 0.00 0.00 0.00 81 1053.0
20260507003052 8 0.0 0.0 0.00 0.00 0.00 80 1052.9
20260507002553 8 0.0 0.0 0.00 0.00 0.00 80 1052.9
20260507001040 8 0.0 0.0 0.00 0.00 0.00 81 1053.0
20260507000058 8 0.0 0.0 0.00 0.00 0.00 81 1053.1
20260506235132 8 0.0 0.0 0.00 0.00 0.00 81 1052.9
20260506234133 8 0.0 0.0 0.00 0.00 0.00 81 1053.1
20260506233043 8 0.0 0.0 0.00 0.00 0.00 82 1053.0
20260506232025 8 0.0 0.0 0.00 0.00 0.00 82 1052.9
20260506231138 8 0.0 0.0 0.00 0.00 0.00 82 1052.9
20260506230106 8 0.0 0.0 0.00 0.00 0.00 82 1052.9
20260506225056 8 0.0 0.0 0.00 0.00 0.00 82 1052.7
20260506224025 8 0.0 0.0 0.00 0.00 0.00 82 1052.8
20260506223027 8 0.0 0.0 0.00 0.00 0.00 82 1052.7
20260506222054 8 0.0 0.0 0.00 0.00 0.00 83 1052.7
20260506221207 8 0.0 0.0 0.00 0.00 0.00 83 1052.8
20260506220038 8 0.0 0.0 0.00 0.00 0.00 83 1052.4
20260506215149 8 0.0 0.0 0.00 0.00 0.00 84 1052.5
20260506214058 8 0.0 0.0 0.00 0.00 0.00 85 1052.5
20260506213038 8 0.0 0.0 0.00 0.00 0.00 85 1052.5
20260506212107 8 0.0 0.0 0.00 0.00 0.00 85 1052.5
20260506211057 8 0.0 0.0 0.00 0.00 0.00 86 1052.4
20260506210100 8 0.0 0.0 0.00 0.00 0.00 86 1052.2
20260506205307 8 0.0 0.0 0.00 0.00 0.00 86 1052.2
20260506204025 8 0.0 0.0 0.00 0.00 0.00 86 1052.2
20260506203027 8 0.0 0.0 0.00 0.00 0.00 85 1052.2
20260506202032 8 343 0.0 3.2 0.00 0.00 0.00 85 1052.2
20260506201040 8 304 0.0 8.0 0.00 0.00 0.00 84 1052.2
20260506200056 9 0.0 0.0 0.00 0.00 0.00 84 1051.9
20260506194719 9 0.0 0.0 0.00 0.00 0.00 83 1052.1
20260506193522 10 343 0.0 3.2 0.00 0.00 0.00 82 1051.9
20260506192626 10 0.0 0.0 0.00 0.00 0.00 81 1051.9
20260506191526 10 341 0.0 3.2 0.00 0.00 0.00 80 1051.9
20260506190700 10 0.0 0.0 0.00 0.00 0.00 79 1051.2
20260506185625 10 0.0 0.0 0.00 0.00 0.00 79 1051.5
20260506184916 10 0.0 3.2 0.00 0.00 0.00 78 1051.4
20260506183536 10 0.0 0.0 0.00 0.00 0.00 77 1051.4
20260506182613 11 333 1.6 3.2 0.00 0.00 0.00 76 1051.3
20260506181536 11 313 1.6 8.0 0.00 0.00 0.00 75 1051.2
20260506180530 11 325 0.0 3.2 0.00 0.00 0.00 73 1051.2
20260506175524 11 12 1.6 12.9 0.00 0.00 0.00 72 1050.9
20260506174557 11 326 3.2 20.9 0.00 0.00 0.00 73 1051.1
20260506173522 11 297 1.6 8.0 0.00 0.00 0.00 72 1050.9
20260506172617 11 14 3.2 8.0 0.00 0.00 0.00 72 1050.7
20260506171536 12 314 3.2 12.9 0.00 0.00 0.00 68 1050.8
20260506170602 12 0.0 3.2 0.00 0.00 0.00 64 1050.5
20260506165552 12 0.0 3.2 0.00 0.00 0.00 64 1050.6
20260506164735 12 336 0.0 3.2 0.00 0.00 0.00 64 1050.5
20260506163700 12 0.0 0.0 0.00 0.00 0.00 63 1050.5
20260506162600 12 347 3.2 12.9 0.00 0.00 0.00 62 1050.9
20260506161544 12 341 3.2 8.0 0.00 0.00 0.00 61 1050.7
20260506160540 12 284 0.0 8.0 0.00 0.00 0.00 59 1050.7
20260506155604 13 328 1.6 8.0 0.00 0.00 0.00 59 1050.9
20260506154540 13 323 3.2 16.1 0.00 0.00 0.00 60 1050.9
20260506153719 13 310 3.2 12.9 0.00 0.00 0.00 55 1050.7
20260506152605 13 15 3.2 12.9 0.00 0.00 0.00 57 1050.7
20260506151531 13 75 3.2 16.1 0.00 0.00 0.00 57 1050.5
20260506150718 13 33 3.2 16.1 0.00 0.00 0.00 57 1050.7
20260506145559 13 186 3.2 12.9 0.00 0.00 0.00 56 1050.7
20260506144533 13 339 1.6 16.1 0.00 0.00 0.00 58 1050.5
20260506143539 13 349 1.6 12.9 0.00 0.00 0.00 58 1050.5
20260506142540 13 0.0 3.2 0.00 0.00 0.00 56 1050.5
20260506141541 13 48 0.0 3.2 0.00 0.00 0.00 54 1050.5
20260506140602 13 11 1.6 12.9 0.00 0.00 0.00 52 1050.5
20260506135527 13 341 0.0 16.1 0.00 0.00 0.00 47 1050.5
20260506134601 13 320 0.0 8.0 0.00 0.00 0.00 47 1050.5
20260506133527 13 353 0.0 8.0 0.00 0.00 0.00 47 1050.7
20260506132653 13 329 0.0 12.9 0.00 0.00 0.00 49 1050.7
20260506131706 12 287 1.6 3.2 0.00 0.00 0.00 50 1050.9
20260506130049 12 336 1.6 3.2 0.00 0.00 0.00 51 1050.9
20260506125211 12 0.0 3.2 0.00 0.00 0.00 53 1050.9
20260506124104 12 25 1.6 8.0 0.00 0.00 0.00 53 1050.9